Location: Buckhorn Peak
(37.6641°N, 120.1241°W)
Time: 01:31:14
(UTC+00:00)

BlueWalker 3 - Pass Details

Date: 24 December 2025
Orbit: 452 x 463 km, 53.2° (Epoch: 13 January)

Event Time Altitude Azimuth Distance (km) Brightness Sun altitude
Exits shadow 13:21:05 34° 19° (NNE) 764 2.8 -21.5°
Drops below altitude 10° 13:23:23 10° 39° (NE) 1,592 4.8 -21.0°
Sets 13:25:34 0° 44° (NE) 2,471 5.9 -20.6°
